This demonstration page uses our WeatherBlox Daily Observations layout. Learn more.

Hourly Observations for July 25, 2018

Temp ( °F °C ) Dew Point ( °F °C ) Humidity (%) Winds ( mph kmh ) Pressure ( in mb ) Visibility ( mi km ) Precip ( " mm )
12:15 am 00:15 Clear 66 18.7 62 16.8 89 89 SE 6 9 30.09 1019 10 16.0934 0 0
12:35 am 00:35 Clear 65 18.6 63 17 90 90 SE 7 11 30.09 1019 10 16.0934 0 0
12:55 am 00:55 Clear 65 18.5 62 16.7 89 89 SSE 6 9 30.06 1018 10 16.0934 0 0
1:15 am 01:15 Clear 64 18 62 16.5 91 91 SE 6 9 30.06 1018 10 16.0934 0 0
1:35 am 01:35 Clear 64 18 62 16.5 91 91 SE 7 11 30.06 1018 10 16.0934 0 0
1:55 am 01:55 Clear 64 18 62 16.5 91 91 SE 7 11 30.06 1018 10 16.0934 0 0
2:15 am 02:15 Clear 64 18 62 16.5 91 91 SSE 6 9 30.06 1018 10 16.0934 0 0
2:35 am 02:35 Clear 64 17.7 62 16.5 93 93 SSE 7 11 30.06 1018 10 16.0934 0 0
2:55 am 02:55 Clear 64 17.5 62 16.5 94 94 S 7 11 30.06 1018 10 16.0934 0 0
3:15 am 03:15 Clear 64 18 62 16.5 91 91 S 8 13 30.06 1018 10 16.0934 0 0
3:35 am 03:35 Clear 64 18 62 16.4 90 90 S 7 11 30.06 1018 10 16.0934 0 0
3:55 am 03:55 Clear 64 18 61 16.3 90 90 S 7 11 30.06 1018 10 16.0934 0 0
4:15 am 04:15 Clear 64 18 61 16.3 90 90 S 7 11 30.06 1018 10 16.0934 0 0
4:35 am 04:35 Clear 64 18 61 16.2 89 89 S 8 13 30.06 1018 10 16.0934 0 0
4:55 am 04:55 Clear 65 18.3 61 16.3 88 88 S 8 13 30.06 1018 10 16.0934 0 0
5:15 am 05:15 Clear 64 18 61 16.2 89 89 S 7 11 30.03 1017 10 16.0934 0 0
5:35 am 05:35 Clear 64 17.9 61 16.1 89 89 SE 6 9 30.06 1018 10 16.0934 0 0
5:55 am 05:55 Clear 63 17.2 61 16.1 93 93 SE 6 9 30.06 1018 10 16.0934 0 0
6:15 am 06:15 Clear 63 17.1 61 16.2 94 94 SSE 6 9 30.09 1019 10 16.0934 0 0
6:35 am 06:35 Partly Cloudy 63 17.2 61 16.2 94 94 SSE 5 7 30.06 1018 10 16.0934 0 0
6:55 am 06:55 Mostly Cloudy 63 17.3 61 16.2 93 93 SSE 3 6 30.06 1018 10 16.0934 0 0
7:15 am 07:15 Partly Cloudy 64 17.8 62 16.5 92 92 SSE 3 6 30.06 1018 10 16.0934 0 0
7:35 am 07:35 Partly Cloudy 64 18 62 16.5 91 91 N 14 22 30.06 1018 10 16.0934 0 0
7:55 am 07:55 Mostly Cloudy with Nearby Thunderstorms 67 19.5 60 15.7 79 79 NNW 3 6 30.06 1018 10 16.0934 0 0
8:15 am 08:15 Mostly Cloudy 67 19.5 62 16.6 83 83 NE 3 6 30.06 1018 10 16.0934 0 0
8:35 am 08:35 Partly Cloudy 68 20 62 16.8 82 82 ENE 5 7 30.06 1018 10 16.0934 0 0
8:55 am 08:55 Sunny 68 20.1 62 16.9 82 82 ENE 7 11 30.06 1018 10 16.0934 0 0
9:15 am 09:15 Sunny 68 20.1 62 16.8 81 81 ENE 9 15 30.06 1018 10 16.0934 0 0
9:35 am 09:35 Partly Cloudy 68 20.1 63 17 82 82 ENE 7 11 30.06 1018 10 16.0934 0 0
9:55 am 09:55 Partly Cloudy 68 20.1 62 16.9 82 82 ENE 5 7 30.06 1018 10 16.0934 0 0
10:15 am 10:15 Partly Cloudy 68 20.1 63 17 82 82 E 7 11 30.06 1018 10 16.0934 0 0
10:35 am 10:35 Partly Cloudy with Thunderstorms 68 19.8 62 16.6 82 82 E 6 9 30.06 1018 10 16.0934 0 0
10:55 am 10:55 Mostly Cloudy with Nearby Thunderstorms 67 19.6 62 16.6 83 83 ENE 14 22 30.06 1018 10 16.0934 0 0
11:15 am 11:15 Mostly Cloudy 67 19.2 62 16.8 86 86 NE 9 15 30.09 1019 10 16.0934 0.01 0.254
11:35 am 11:35 Partly Cloudy with Thunderstorms 66 19 63 17.4 91 91 ENE 13 20 30.06 1018 10 16.0934 0.01 0.254
11:55 am 11:55 Cloudy 65 18.4 63 17.2 93 93 N 9 15 30.09 1019 10 16.0934 0.01 0.254
12:15 pm 12:15 Cloudy with Heavy Thunderstorms 64 18 64 17.7 98 98 SSE 9 15 30.09 1019 2 3.21868 0.27 6.858
12:35 pm 12:35 Windy with Storms Likely 64 17.9 64 17.9 100 100 SE 20 31 30.03 1017 7 11.26538 0.3 7.62
12:55 pm 12:55 Partly Cloudy 65 18.6 65 18.1 97 97 SSE 12 19 30 1016 10 16.0934 0.3 7.62
1:15 pm 13:15 Sunny with Nearby Thunderstorms 68 20.2 64 17.9 87 87 S 8 13 29.97 1015 10 16.0934 0 0
1:35 pm 13:35 Sunny 70 21.3 65 18.2 83 83 S 8 13 29.97 1015 10 16.0934 0 0
1:55 pm 13:55 Sunny 72 22.4 65 18.2 77 77 SSE 9 15 30 1016 10 16.0934 0 0
2:15 pm 14:15 Sunny 74 23.2 66 19 77 77 SSE 6 9 30 1016 10 16.0934 0 0
2:35 pm 14:35 Sunny 74 23.2 67 19.2 78 78 SSE 6 9 29.97 1015 10 16.0934 0 0
2:55 pm 14:55 Sunny 75 23.9 69 20.3 80 80 SSE 6 9 29.94 1014 10 16.0934 0 0
3:15 pm 15:15 Sunny 77 24.8 66 19.1 71 71 S 6 9 29.97 1015 10 16.0934 0 0
3:35 pm 15:35 Sunny with Nearby Thunderstorms 78 25.4 68 19.8 71 71 Calm 29.97 1015 10 16.0934 0 0
3:55 pm 15:55 Sunny with Nearby Thunderstorms 79 26.1 67 19.5 67 67 Calm 29.97 1015 10 16.0934 0 0
4:15 pm 16:15 Partly Cloudy 78 25.7 66 18.8 66 66 Calm 29.97 1015 10 16.0934 0 0
4:35 pm 16:35 Mostly Cloudy 78 25.8 67 19.5 68 68 Calm 29.97 1015 10 16.0934 0 0
4:55 pm 16:55 Cloudy 79 26 66 18.8 65 65 Calm 29.94 1014 10 16.0934 0 0
5:15 pm 17:15 Cloudy 79 26 67 19.7 68 68 Calm 29.97 1015 10 16.0934 0 0
5:35 pm 17:35 Partly Cloudy 80 26.5 67 19.5 65 65 Calm 29.97 1015 10 16.0934 0 0
5:55 pm 17:55 Sunny 80 26.4 67 19.2 65 65 Calm 29.94 1014 10 16.0934 0 0
6:15 pm 18:15 Sunny 80 26.5 68 19.9 67 67 Calm 29.94 1014 10 16.0934 0 0
6:35 pm 18:35 Sunny 79 26.2 68 19.9 68 68 E 7 11 29.94 1014 10 16.0934 0 0
6:55 pm 18:55 Mostly Cloudy 78 25.5 70 20.9 76 76 SE 3 6 29.94 1014 10 16.0934 0 0
7:15 pm 19:15 Cloudy 77 25.1 69 20.6 76 76 SSE 6 9 29.97 1015 10 16.0934 0 0
7:35 pm 19:35 Mostly Cloudy 76 24.5 69 20.5 78 78 ESE 6 9 29.97 1015 10 16.0934 0 0
7:55 pm 19:55 Sunny 75 24.1 69 20.5 80 80 ESE 6 9 29.97 1015 10 16.0934 0 0
8:15 pm 20:15 Partly Cloudy 74 23.5 70 21.1 86 86 E 3 6 30 1016 10 16.0934 0 0
8:35 pm 20:35 Mostly Cloudy 73 23 70 21.3 90 90 E 3 6 30 1016 10 16.0934 0 0
8:55 pm 20:55 Partly Cloudy 73 22.8 71 21.5 92 92 E 3 6 30 1016 10 16.0934 0 0
9:15 pm 21:15 Clear 72 22.2 71 21.4 95 95 NNE 3 6 30 1016 10 16.0934 0 0
9:35 pm 21:35 Clear 71 21.4 70 20.9 97 97 Calm 30 1016 10 16.0934 0 0
9:55 pm 21:55 Clear 70 20.9 69 20.6 98 98 Calm 30 1016 10 16.0934 0 0
10:15 pm 22:15 Clear 68 20.1 68 20.1 100 100 N 5 7 30.06 1018 7 11.26538 0 0
10:35 pm 22:35 Clear 68 20.1 68 20.1 100 100 Calm 30.06 1018 7 11.26538 0 0
10:55 pm 22:55 Clear 68 20 68 20 100 100 NE 3 6 30.06 1018 7 11.26538 0 0
11:15 pm 23:15 Clear 67 19.5 67 19.5 100 100 Calm 30.06 1018 7 11.26538 0 0
11:35 pm 23:35 Partly Cloudy with Mist and Fog 67 19.7 67 19.7 100 100 NE 8 13 30.06 1018 5 8.0467 0 0
11:55 pm 23:55 Mostly Cloudy 70 21.1 69 20.4 96 96 ENE 7 11 30.03 1017 10 16.0934 0 0

Powered by AerisWeather